TimeEST,TemperatureF,Dew PointF,Humidity,Sea Level PressureIn,VisibilityMPH,Wind Direction,Wind SpeedMPH,Gust SpeedMPH,PrecipitationIn,Events,Conditions,WindDirDegrees,DateUTC
12:53 AM,25.0,15.1,66,30.35,10.0,Calm,Calm,-,N/A,,Clear,0,2013-02-22 05:53:00
1:53 AM,24.1,16.0,71,30.35,8.0,Calm,Calm,-,N/A,,Clear,0,2013-02-22 06:53:00
2:53 AM,25.0,16.0,69,30.37,10.0,SW,3.5,-,N/A,,Clear,220,2013-02-22 07:53:00
3:53 AM,26.1,16.0,66,30.38,10.0,Calm,Calm,-,N/A,,Clear,0,2013-02-22 08:53:00
4:53 AM,26.1,18.0,71,30.34,10.0,Calm,Calm,-,N/A,,Clear,0,2013-02-22 09:53:00
5:53 AM,26.1,18.0,71,30.35,10.0,North,3.5,-,N/A,,Clear,10,2013-02-22 10:53:00
6:53 AM,27.0,18.0,69,30.37,10.0,Calm,Calm,-,N/A,,Mostly Cloudy,0,2013-02-22 11:53:00
7:53 AM,27.0,17.1,66,30.35,10.0,NE,4.6,-,N/A,,Overcast,40,2013-02-22 12:53:00
8:53 AM,28.9,17.1,61,30.34,10.0,Calm,Calm,-,N/A,,Overcast,0,2013-02-22 13:53:00
9:53 AM,30.9,17.1,57,30.31,9.0,East,8.1,-,0.00,,Overcast,100,2013-02-22 14:53:00
10:53 AM,30.9,19.0,61,30.32,8.0,SSE,8.1,-,0.00,,Overcast,150,2013-02-22 15:53:00
11:53 AM,30.0,21.9,72,30.32,4.0,SE,8.1,-,0.01,,Overcast,130,2013-02-22 16:53:00
11:59 AM,30.2,23.0,75,30.30,2.5,SSE,8.1,-,0.00,Rain,Light Freezing Rain,150,2013-02-22 16:59:00
12:06 PM,30.2,23.0,75,30.30,3.0,SE,8.1,-,0.00,Rain,Light Freezing Rain,140,2013-02-22 17:06:00
12:30 PM,30.2,24.8,80,30.28,8.0,ESE,4.6,-,0.00,,Overcast,120,2013-02-22 17:30:00
12:53 PM,30.0,24.1,79,30.30,5.0,SE,4.6,-,0.01,Rain,Light Freezing Rain,130,2013-02-22 17:53:00
1:14 PM,28.4,24.8,86,30.27,4.0,SE,5.8,-,0.00,,Haze,140,2013-02-22 18:14:00
1:53 PM,30.0,25.0,82,30.28,8.0,SSE,5.8,-,0.00,,Overcast,150,2013-02-22 18:53:00
2:11 PM,30.2,26.6,86,30.25,10.0,SE,4.6,-,N/A,,Overcast,130,2013-02-22 19:11:00
2:18 PM,30.2,24.8,80,30.25,10.0,SE,6.9,-,N/A,,Overcast,140,2013-02-22 19:18:00
2:53 PM,30.9,26.1,82,30.26,10.0,SE,4.6,-,N/A,,Overcast,130,2013-02-22 19:53:00
3:06 PM,30.2,24.8,80,30.24,10.0,SE,4.6,-,N/A,,Overcast,130,2013-02-22 20:06:00
3:27 PM,30.2,24.8,80,30.24,10.0,SSE,5.8,-,N/A,,Overcast,150,2013-02-22 20:27:00
3:53 PM,30.9,25.0,79,30.25,10.0,ESE,6.9,-,N/A,,Overcast,120,2013-02-22 20:53:00
4:00 PM,30.2,24.8,80,30.23,10.0,SE,4.6,-,N/A,,Overcast,130,2013-02-22 21:00:00
4:32 PM,30.2,24.8,80,30.22,10.0,SE,5.8,-,N/A,,Overcast,130,2013-02-22 21:32:00
4:53 PM,30.9,26.1,82,30.24,10.0,SE,4.6,-,N/A,,Overcast,140,2013-02-22 21:53:00
5:36 PM,30.2,26.6,86,30.22,10.0,SE,4.6,-,N/A,,Overcast,140,2013-02-22 22:36:00
5:53 PM,30.9,26.1,82,30.24,10.0,SE,4.6,-,N/A,,Overcast,140,2013-02-22 22:53:00
6:53 PM,30.9,26.1,82,30.23,10.0,ESE,3.5,-,0.01,,Overcast,110,2013-02-22 23:53:00
7:53 PM,30.9,26.1,82,30.23,10.0,Calm,Calm,-,N/A,,Overcast,0,2013-02-23 00:53:00
8:53 PM,30.9,26.1,82,30.22,10.0,Calm,Calm,-,N/A,,Overcast,0,2013-02-23 01:53:00
9:53 PM,32.0,27.0,82,30.20,10.0,Calm,Calm,-,N/A,,Overcast,0,2013-02-23 02:53:00
10:53 PM,32.0,27.0,82,30.22,10.0,SE,3.5,-,N/A,,Overcast,140,2013-02-23 03:53:00
11:31 PM,32.0,26.6,80,30.18,10.0,Calm,Calm,-,N/A,,Overcast,0,2013-02-23 04:31:00
11:53 PM,32.0,27.0,82,30.19,10.0,Calm,Calm,-,N/A,,Overcast,0,2013-02-23 04:53:00